sat.trackr.live / text

‹ back to catalog

STARLINK-33783

NORAD 63712 · 2025-087R

PAYLOAD ACTIVE UNKNOWN

§ Identity

Operator
Country
US
Launch date
2025-04-28
Launch site
AFWTR
Launch vehicle
Mass (kg)
RCS (m²)

Purposes: comms

External: N2YO · Heavens-Above · Gunter

§ Orbital elements

Epoch: 2026-09-20T22:45:56.605248Z

Period
94.01 min
Inclination
53.1604°
Eccentricity
0.0001121
Mean motion
15.31676596 rev/d
Perigee alt
470.0 km
Apogee alt
471.6 km
Semi-major
6,848.9 km
B*
5.0518e-4
RAAN
31.2521°
Arg perigee
95.3993°
Mean anomaly
264.7137°
Rev number
7,911

§ Raw data

STARLINK-337831 63712U 25087R   26263.94857182  .00015332  00000+0  50518-3 0  99992 63712  53.1604  31.2521 0001121  95.3993 264.7137 15.31676596 79114

JSON: /api/v1/satellites/63712 · /tle

For live sub-satellite position, see the globe view (requires WebGL).

§ Visibility from observer

Set your observer location to see the next 7 days of passes ≥ 10°. The values pass through the URL so the page stays shareable.

No JS? Fill the form by hand. The geolocation button needs JavaScript.